Weather Roundup
Issued by NWS Corpus Christi, TX

Home | Current Version | Previous Version | Text Only | Print | Product List | Glossary On
Versions: 1 2 3 4 5 6 7 8 9 10 11 12 13 14 15 16 17 18 19 20 21 22 23 24 25 26 27 28 29 30 31 32 33 34 35 36 37 38 39 40 41 42 43 44 45 46 47 48 49 50
000
ASUS44 KCRP 231410
HRRCRP

SOUTH TEXAS REGIONAL WEATHER ROUNDUP
NATIONAL WEATHER SERVICE CORPUS CHRISTI TX
900 AM CDT WED APR 23 2014


TXZ229>244-231500-
...CORPUS CHRISTI AREA OBSERVATIONS...

CITY           SKY/WX    TMP DP  RH WIND       PRES   REMARKS
CORPUS CHRISTI MOSUNNY   75  69  81 SE10      29.92S
NAS CORPUS CHR MOSUNNY   75  70  84 SE13      29.93R
ROCKPORT       PTSUNNY   73  70  90 S9        29.93S
KINGSVILLE NAS PTSUNNY   74  70  87 SE13      29.92R
ALICE          CLOUDY    71  68  90 S10       29.92R
FALFURRIAS     CLOUDY    68  66  93 SE8       29.92R
$$

...VICTORIA AREA OBSERVATIONS...

CITY           SKY/WX    TMP DP  RH WIND       PRES   REMARKS
VICTORIA       NOT AVBL
BEEVILLE       CLOUDY    69  69 100 SE3       29.93S
PLEASANTON     SUNNY     70  65  82 SE6       29.92S
SAN ANTONIO    MOSUNNY   71  65  81 SE6       29.94S
$$

...LAREDO AREA OBSERVATIONS...

CITY           SKY/WX    TMP DP  RH WIND       PRES   REMARKS
LAREDO         CLOUDY    73  67  81 SE13      29.91S
COTULLA        MOSUNNY   71  64  78 SE12      29.90S
DEL RIO        PTSUNNY   73  65  75 SE12      29.87R
MCALLEN        CLOUDY    72  69  90 SE9       29.92R
HEBBRONVILLE   CLOUDY    70  67  88 SE13      29.92S
$$

...OTHER TEXAS OBSERVATIONS...

CITY           SKY/WX    TMP DP  RH WIND       PRES   REMARKS
BROWNSVILLE    SUNNY     74  71  91 SE12      29.93R
HOUSTON        SUNNY     73  67  81 CALM      29.96S
COL. STATION   SUNNY     69  66  90 SE6       29.95S
AUSTIN         FOG       65  62  90 SE3       29.94R VSB 1/2
WACO           SUNNY     70  63  78 S3        29.93S
FORT WORTH     MOSUNNY   71  60  68 S10       29.92S
WICHITA FALLS  SUNNY     66  57  72 S15       29.89S
LUBBOCK        CLOUDY    64  50  60 S18       29.86F
EL PASO        PTSUNNY   70  24  17 SW9       29.89R
$$

...MARINE OBSERVATIONS...

STATION/POSITION TIME  SKY/WX   TEMP    WIND        PRES    VSBY  WAVE   SWELL
                                AIR SEA DIR/SP/G                  HT/PER HT/PER
                 (UTC)          (F)     (DEG/KT/KT) (MB)    (MI)  (FT/S) (FT/S)
PORT ARANSAS     1400            72 73  140/  8/  9 1013.8R
BUOY 90 E PORT A NOT AVBL
BUOY 45 SE BAFFI 1400            71 71  130/  4/  6 1014.0R         1/ 5   2/ 5
BUOY 200 E PT IS NOT AVBL
BUOY 15 E GALVES 1400            70 70  200/  2/  2 1014.9R         1/ 5
$$


USA.gov is the U.S. government's official web portal to all federal, state and local government web resources and services.